Lid_Strength_Index
2 -0 -1 -1 -1 -1 -1 -1 -1 -1 -1 -2 -2 -2 -1 -1 -1 -1 -1 -1 -2 -2 -2 -2 -2 -2 -2 -2 -2 -1 -1 -1 -1 -1 -1 -1 -1 -1 -1 -1 -1 -1 -1
0 -0 -1 -1 -1 -1 -1 -1 -1 -1 -2 -2 -2 -2 -2 -2 -2 -2 -2 -2 -2 -2 -2 -2 -2 -2 -2 -1 -1 -1 -1 -2 -1 -1 -1 -1 -1 -1 -1 -1 -1 -1 -2
0 -0 -0 -1 -1 -1 -1 -1 -1 -2 -2 -2 -2 -2 -2 -2 -2 -2 -2 -2 -2 -2 -2 -2 -2 -2 -1 -1 -1 -2 -2 -1 -1 -1 -1 1 2 -1 -1 -1 -1 -1 -2
0 -0 -0 -1 -1 -1 -1 -2 -2 -2 -2 -2 -2 -2 -2 -2 -2 -2 -2 -2 -2 -2 -2 -1 -1 -1 -1 -1 -2 -2 -2 -1 -1 -1 1 -0 -1 -2 -2 -2 -2 -2 -2
0 -0 -0 -1 -1 -1 -1 -2 -2 -2 -2 -2 -2 -2 -2 -2 -2 -2 -2 -1 -1 -1 -1 -1 -0 0 -0 -1 -2 -2 -2 -1 -1 1 2 0 -0 -1 -2 -2 -2 -2 -2
0 -0 -0 -1 -1 -1 -1 -2 -2 -2 -2 -2 -2 -2 -2 -2 -2 -2 -1 -1 -1 -0 -0 0 0 0 -0 -1 -2 -2 -2 -1 0 3 2 1 1 -2 -2 -2 -2 -2 -2
0 -0 -0 -1 -1 -1 -2 -2 -2 -2 -2 -2 -2 -2 -2 -2 -2 -1 -1 -0 0 0 1 1 1 1 -1 -1 -2 -2 -1 -1 3 3 2 1 0 -2 -2 -2 -2 -2 -2
1 -0 -0 -1 -1 -2 -2 -2 -2 -2 -2 -2 -2 -2 -2 -2 -1 -1 -0 -0 0 1 1 1 1 -0 0 -1 -2 -1 -1 0 2 3 2 2 -2 -2 -1 -1 -1 -2 -2
0 0 0 -0 -1 -1 -1 -2 -2 -2 -2 -2 -2 -2 -2 -1 -1 -0 -0 0 0 1 1 1 0 0 -0 -1 -1 -1 -0 1 4 3 2 2 -2 -1 -1 -2 -2 -2 -2
1 1 1 1 1 0 -0 -1 -2 -2 -2 -2 -2 -2 -1 -1 -1 -0 0 0 0 1 1 1 1 1 0 -1 -1 -0 1 2 5 5 3 1 -1 -1 -2 -2 -2 -2 -2
2 2 2 2 2 1 1 -0 -1 -2 -2 -2 -1 -0 3 5 4 4 0 -0 1 1 1 1 1 1 2 1 1 1 3 6 5 5 3 -1 -1 -1 -1 -1 -1 -2 -2
4 3 2 2 3 2 0 1 1 1 3 3 4 7 8 8 8 5 2 0 1 1 1 2 3 4 7 10 8 4 6 6 5 4 3 -1 -1 -1 -1 -0 -0 -0 -1
3 3 3 3 3 2 2 2 3 4 4 5 8 10 11 9 10 10 10 10 9 7 10 9 9 10 11 11 11 8 6 6 6 5 2 -0 -0 -1 -0 0 0 0 0
3 3 3 4 4 4 2 3 4 4 6 6 8 11 11 11 11 12 11 10 10 10 10 10 10 10 10 11 11 9 7 7 6 5 3 0 1 0 -0 0 0 0 0
4 4 4 3 5 4 3 4 5 6 7 7 8 11 11 11 11 11 11 10 10 10 10 10 10 10 11 11 11 10 8 8 7 6 5 1 1 1 1 0 1 1 1
3 4 4 4 4 4 4 5 6 7 8 8 9 11 10 11 11 11 11 10 10 10 10 10 10 10 10 10 11 11 11 8 7 7 6 4 2 2 1 1 1 2 2
3 4 4 4 5 5 5 5 6 7 7 9 9 11 10 10 10 10 10 10 10 9 9 9 10 10 10 10 11 11 11 9 8 7 7 7 5 2 3 3 3 3 3
3 4 4 4 5 6 6 6 6 7 8 9 9 10 10 10 10 10 10 10 10 9 9 10 10 11 11 11 11 11 10 9 8 7 8 8 7 7 6 3 4 4 3
2 3 4 4 5 6 7 6 7 7 8 9 9 9 9 9 9 9 9 10 9 9 10 10 10 11 12 11 11 11 10 10 9 7 8 8 9 9 9 6 6 6 4
2 2 4 5 5 6 8 7 8 9 9 9 9 9 9 9 8 8 9 9 9 9 10 10 11 12 13 12 10 11 12 12 11 9 10 10 10 10 10 11 11 10 6
2 2 4 5 6 7 8 8 8 9 9 9 9 8 8 8 8 8 9 9 9 10 10 11 11 13 13 13 12 12 12 13 12 12 12 12 12 11 12 12 12 12 11
3 3 4 5 6 6 7 6 7 8 8 9 9 9 8 8 7 8 8 9 9 10 10 11 11 12 13 14 14 14 14 13 14 13 13 12 13 12 12 11 12 12 12
3 4 4 4 5 6 6 7 7 8 9 9 9 8 8 7 7 8 8 8 9 9 10 11 12 12 14 14 14 14 16 15 16 14 13 13 12 13 13 12 12 12 12
3 3 4 4 5 5 7 7 8 8 9 8 8 8 8 8 7 7 8 8 9 9 10 11 11 12 13 14 14 13 15 15 18 17 14 13 12 12 13 13 12 12 12
3 3 4 4 5 5 5 6 7 7 8 8 8 8 8 8 7 8 8 8 9 9 10 11 12 12 13 13 14 15 15 15 14 15 16 15 14 13 13 13 13 13 13
4 3 4 5 5 6 5 6 6 7 7 8 9 8 8 8 8 8 8 8 9 10 11 12 13 13 13 14 14 15 14 15 15 15 16 16 16 14 13 13 13 14 14